Wind_Speed
3 3 4 4 5 6 7 7 7 7 7 6 5 4 3 4 4 5 5 5 6 6 6 6 6 5 5 5 4 4 4 4 4 4 3 3 4 4 5 5 5 5 5
4 4 4 5 6 7 8 8 9 9 8 8 7 5 4 4 4 4 4 4 4 4 4 4 4 4 4 4 3 3 2 2 2 2 2 2 3 3 4 4 4 5 5
5 5 5 5 6 7 8 9 10 10 10 9 9 8 6 6 5 4 4 4 3 3 2 2 2 2 2 2 2 1 1 1 0 1 1 2 2 3 3 4 4 4 5
5 5 5 6 7 8 9 10 10 10 10 11 10 9 8 8 7 6 6 5 5 4 3 2 2 2 1 1 1 0 0 1 1 1 2 2 2 3 3 3 4 4 5
5 5 6 7 8 8 9 10 11 11 11 11 11 11 11 10 10 9 9 8 7 6 6 5 4 4 4 3 3 2 1 2 2 3 3 3 4 4 4 4 5 5 6
6 6 7 7 8 9 10 10 11 11 12 12 13 13 13 13 13 12 11 11 10 9 8 8 7 7 6 6 5 5 3 3 3 3 4 5 5 5 6 6 6 7 7
7 7 8 8 9 10 10 11 12 13 14 14 14 15 15 15 15 15 14 14 13 12 11 11 10 10 10 9 8 7 7 6 5 5 5 6 6 7 7 8 8 8 9
9 10 10 11 11 12 13 14 15 16 16 16 17 17 18 18 18 18 17 17 16 15 15 14 13 13 13 12 12 11 10 9 8 8 8 8 8 8 9 10 10 10 10
11 12 13 13 14 15 16 17 18 19 19 19 19 20 21 21 21 21 21 20 19 18 17 17 16 16 16 15 15 14 13 13 12 11 11 10 10 10 11 11 12 12 12
14 15 15 16 17 18 19 20 21 21 22 22 22 23 23 24 24 24 23 23 22 20 20 19 19 19 19 18 18 17 16 16 15 15 14 13 13 13 13 13 13 14 14
16 17 18 19 20 21 22 23 23 24 25 25 25 26 27 27 27 26 25 25 24 23 22 21 21 21 21 20 20 19 18 18 18 17 17 16 16 16 16 16 16 16 16
20 20 21 22 23 25 25 26 27 27 27 28 28 29 29 29 29 29 28 27 26 25 24 23 22 21 21 21 21 20 20 19 19 19 19 19 19 18 18 18 18 18 18
23 23 24 25 25 27 28 28 29 30 30 30 31 31 31 32 32 31 31 29 28 28 26 25 24 23 23 23 22 21 21 21 21 21 20 19 20 20 20 20 20 20 20
26 26 26 27 28 29 30 31 31 32 33 33 33 33 33 34 34 34 33 32 31 30 28 27 26 25 24 24 23 22 22 21 21 21 21 21 21 21 20 20 20 21 22
29 30 30 30 31 32 33 34 34 34 35 35 35 36 35 35 36 36 36 36 34 31 30 28 27 26 26 25 25 23 22 22 21 21 21 21 21 21 21 21 20 20 22
32 33 33 33 34 35 36 37 36 36 37 37 37 36 36 37 37 38 38 38 36 34 32 30 29 28 27 26 25 24 23 23 22 21 21 21 20 20 21 21 21 21 22
33 35 35 36 36 37 38 39 38 38 38 37 37 36 37 38 38 38 38 39 38 37 35 33 31 29 28 27 26 25 24 23 22 22 21 20 20 20 20 20 20 20 21
35 37 38 38 38 39 40 39 39 39 38 37 36 35 36 36 37 38 37 38 40 38 36 33 33 30 29 27 27 26 25 24 23 22 21 20 19 18 18 18 18 18 18
36 38 39 39 40 41 40 40 39 40 39 37 36 37 37 35 35 36 35 36 37 37 37 35 33 32 29 29 28 26 25 25 23 22 22 20 19 17 17 16 16 16 16
37 38 40 41 41 41 41 41 41 40 39 37 36 36 36 34 31 30 33 33 34 35 35 35 34 33 31 30 29 27 26 25 24 23 22 21 20 19 18 16 16 15 15
37 39 40 42 42 43 42 41 40 39 38 37 35 33 32 31 30 30 32 32 34 35 34 33 32 32 31 30 29 28 27 26 25 25 24 23 22 21 19 17 16 15 14
36 38 40 41 41 41 41 40 40 40 38 36 34 33 31 30 29 28 29 30 32 33 34 32 31 31 30 30 30 29 28 28 27 26 26 25 23 22 20 19 17 16 15
34 36 37 38 39 39 39 40 40 39 38 36 35 33 31 30 30 29 29 30 31 31 32 31 31 31 31 31 31 31 30 30 29 28 27 26 25 24 23 21 19 17 16
33 34 35 36 38 39 39 39 39 38 37 37 36 35 34 32 31 32 32 32 33 33 33 33 33 33 34 33 32 32 32 31 31 30 30 29 28 27 25 23 22 20 18
34 36 37 38 39 40 40 40 40 40 40 40 39 39 39 38 37 36 36 36 36 36 36 36 36 36 36 36 36 35 35 34 34 33 32 31 31 30 28 26 24 22 21
36 37 38 39 40 41 42 43 43 44 44 44 44 43 43 42 42 42 42 41 41 40 40 40 40 40 39 39 39 38 37 37 37 35 34 34 34 33 31 29 27 25 23
Wind_Direction
332 334 334 332 330 326 324 323 322 323 325 328 335 346 2 18 33 46 53 58 63 66 67 68 68 68 66 64 63 63 68 73 74 77 88 103 116 121 126 132 136 138 138
322 320 323 330 329 323 319 316 315 316 318 320 322 325 330 340 353 8 21 30 39 48 56 59 61 60 62 64 65 62 61 67 80 93 111 125 135 140 142 143 143 145 146
319 315 319 329 330 323 315 312 310 311 313 314 315 314 315 320 327 333 341 350 357 2 10 21 30 38 47 56 62 67 74 77 97 168 173 170 167 167 168 166 163 164 166
319 317 324 330 329 323 315 310 308 308 309 310 310 309 309 311 314 316 316 319 319 317 312 305 304 309 320 336 350 0 260 231 236 237 225 215 205 200 200 199 195 187 188
321 324 330 333 329 322 315 311 309 308 308 308 307 306 306 306 307 306 304 303 301 296 291 285 282 282 284 288 290 285 267 255 252 251 249 241 233 227 224 224 221 212 207
317 324 329 328 324 319 315 312 311 310 310 308 307 305 304 302 301 299 298 295 293 288 284 280 276 275 276 278 281 281 277 266 260 258 256 252 247 242 236 233 233 228 221
309 315 322 324 321 317 315 314 312 310 310 310 307 305 303 301 298 296 293 290 288 285 281 277 274 272 271 271 273 275 275 271 264 260 259 256 253 249 244 239 236 234 231
305 309 310 312 313 314 314 313 311 310 309 308 307 305 302 300 298 296 291 288 285 283 280 276 272 269 268 267 267 267 268 267 264 260 257 255 254 251 248 243 239 236 234
300 302 303 305 308 310 308 308 307 307 306 305 305 303 301 297 295 293 290 287 284 282 279 275 271 268 266 265 264 263 262 261 260 259 256 254 253 250 248 245 241 238 237
296 298 300 302 303 304 305 305 306 306 304 302 302 300 297 294 291 290 288 286 282 279 277 274 270 267 265 264 262 261 260 258 258 257 255 253 251 250 248 246 243 239 237
293 297 299 301 302 303 303 303 302 302 302 298 298 297 295 290 288 286 284 283 280 278 276 272 269 266 264 263 261 260 258 257 257 256 254 253 251 250 248 246 245 241 238
290 294 297 299 300 300 301 300 299 299 298 296 295 293 291 288 284 281 279 278 277 275 273 271 267 266 262 260 258 258 256 256 256 255 255 254 252 250 248 246 244 243 240
291 294 295 295 297 297 298 299 299 297 296 295 293 291 289 285 282 279 276 274 273 272 271 268 264 263 261 258 257 255 254 256 255 254 255 254 253 252 251 248 245 244 242
289 289 290 292 294 295 295 297 298 296 296 294 292 290 289 283 280 276 274 272 270 268 267 265 262 260 259 257 256 255 254 255 254 254 253 254 255 254 252 252 249 246 244
287 287 288 290 292 293 294 294 293 293 294 292 291 288 287 285 278 274 272 269 266 264 262 262 260 259 258 256 255 253 252 253 253 253 252 253 255 254 252 252 249 249 247
285 286 287 289 290 291 292 293 291 291 291 289 288 286 283 281 279 272 270 268 263 259 258 257 258 258 257 256 255 252 251 250 250 249 250 251 251 252 251 248 249 249 249
282 284 286 286 287 288 290 292 291 291 291 290 289 285 283 282 280 275 268 265 261 257 256 256 255 256 256 254 252 249 249 249 248 246 247 247 246 247 248 247 249 249 249
281 282 283 284 285 286 288 291 291 292 293 292 290 288 284 281 277 274 268 262 258 255 254 254 254 255 255 253 249 247 247 246 245 243 243 242 243 243 243 244 246 248 248
280 281 282 284 286 287 290 290 289 291 292 293 290 288 285 280 277 272 265 261 255 251 251 252 253 253 252 249 247 246 245 244 243 240 239 239 239 237 237 239 242 244 248
282 283 284 285 287 288 288 289 288 290 290 290 288 288 284 278 274 267 261 258 254 252 250 251 251 250 249 246 246 245 243 242 241 238 237 236 236 236 236 237 240 243 246
284 285 285 286 286 287 287 288 287 288 288 288 287 287 284 277 269 264 259 255 253 252 251 250 248 247 245 244 244 242 241 240 239 237 236 235 234 235 237 237 238 242 245
287 287 287 287 288 288 288 289 289 288 287 286 286 284 282 275 271 267 261 256 254 251 250 250 247 245 243 243 242 240 239 239 238 236 235 234 234 235 237 237 238 239 243
291 292 291 290 291 292 291 290 290 288 286 285 284 284 280 276 269 265 261 257 254 253 249 247 245 244 244 243 242 239 238 237 236 235 234 233 233 235 237 238 239 239 243
295 296 295 294 294 293 292 291 291 289 285 284 283 280 279 277 272 268 264 260 257 254 250 246 244 244 244 243 241 239 238 236 235 235 234 233 233 235 236 237 238 240 242
298 297 296 296 295 294 293 292 290 288 286 284 282 279 276 272 269 266 263 259 258 254 251 248 246 245 244 243 241 240 239 236 235 235 234 233 233 233 235 236 238 240 243
300 299 298 296 295 294 292 291 289 288 286 284 281 278 274 270 266 264 262 258 255 253 251 249 247 245 243 241 240 240 238 237 236 235 234 233 232 232 234 235 237 239 242
Height
5923 5922 5922 5921 5920 5919 5919 5919 5918 5917 5916 5915 5914 5913 5912 5911 5910 5909 5908 5907 5906 5906 5905 5904 5904 5903 5902 5902 5901 5901 5900 5900 5899 5899 5899 5899 5898 5899 5899 5899 5899 5899 5899
5922 5921 5921 5921 5920 5919 5918 5918 5917 5917 5916 5915 5914 5913 5912 5911 5910 5909 5908 5908 5907 5906 5906 5905 5905 5904 5903 5903 5902 5901 5901 5900 5900 5900 5900 5900 5899 5899 5900 5900 5900 5900 5901
5921 5920 5920 5920 5919 5918 5918 5917 5916 5916 5915 5914 5913 5912 5911 5911 5910 5909 5908 5907 5907 5906 5906 5905 5905 5904 5904 5903 5902 5902 5901 5901 5901 5900 5900 5900 5900 5900 5900 5901 5901 5901 5901
5919 5919 5918 5918 5918 5917 5917 5916 5915 5915 5914 5913 5912 5911 5910 5910 5909 5908 5907 5907 5906 5906 5905 5905 5904 5904 5903 5903 5903 5902 5901 5901 5901 5900 5900 5900 5900 5900 5901 5901 5901 5902 5902
5918 5917 5917 5916 5916 5916 5916 5915 5914 5913 5912 5911 5910 5910 5909 5908 5907 5907 5906 5906 5905 5905 5904 5904 5903 5903 5903 5902 5902 5902 5901 5901 5901 5900 5900 5900 5900 5900 5901 5901 5902 5902 5903
5916 5915 5915 5915 5915 5914 5914 5914 5913 5912 5911 5910 5909 5908 5907 5906 5905 5905 5905 5904 5904 5903 5903 5903 5902 5902 5901 5901 5901 5901 5901 5901 5900 5900 5900 5900 5900 5900 5900 5901 5902 5902 5902
5915 5914 5913 5913 5913 5913 5913 5912 5911 5910 5909 5908 5907 5906 5905 5904 5904 5903 5902 5902 5902 5902 5901 5901 5900 5900 5900 5899 5899 5899 5899 5899 5899 5899 5899 5899 5899 5899 5900 5900 5901 5902 5902
5913 5913 5912 5912 5912 5911 5911 5910 5909 5908 5906 5905 5905 5904 5903 5902 5901 5900 5900 5899 5899 5899 5899 5898 5898 5897 5897 5897 5897 5897 5897 5897 5897 5898 5898 5898 5898 5899 5899 5899 5900 5901 5901
5912 5911 5910 5910 5909 5908 5907 5907 5906 5904 5903 5902 5901 5900 5899 5899 5898 5897 5896 5896 5896 5896 5895 5895 5895 5894 5894 5894 5894 5894 5894 5894 5895 5895 5896 5896 5897 5897 5898 5898 5898 5899 5900
5909 5908 5908 5907 5906 5905 5904 5903 5902 5901 5900 5898 5897 5896 5895 5894 5893 5893 5892 5892 5892 5891 5891 5891 5891 5890 5890 5890 5891 5891 5891 5891 5892 5892 5893 5894 5894 5895 5895 5896 5897 5897 5898
5907 5906 5905 5904 5903 5901 5900 5899 5898 5896 5895 5894 5893 5891 5890 5889 5888 5888 5887 5887 5887 5886 5886 5886 5886 5886 5886 5886 5886 5886 5887 5887 5888 5888 5889 5890 5891 5891 5892 5893 5894 5895 5896
5904 5903 5902 5900 5899 5898 5896 5895 5893 5892 5890 5888 5887 5885 5884 5883 5883 5882 5881 5881 5881 5881 5881 5881 5881 5881 5881 5881 5881 5882 5882 5883 5884 5884 5885 5886 5887 5888 5889 5890 5891 5892 5893
5901 5899 5898 5896 5895 5894 5892 5890 5888 5886 5884 5882 5880 5879 5877 5877 5876 5875 5875 5874 5874 5874 5874 5875 5875 5875 5876 5876 5877 5877 5878 5878 5879 5879 5881 5882 5882 5884 5885 5886 5887 5888 5889
5897 5895 5894 5892 5891 5889 5887 5885 5883 5880 5878 5876 5874 5872 5870 5869 5868 5868 5868 5867 5867 5867 5868 5868 5869 5870 5870 5871 5871 5872 5873 5873 5874 5875 5876 5877 5878 5879 5880 5881 5883 5884 5885
5892 5891 5889 5887 5885 5883 5881 5879 5877 5874 5872 5869 5866 5865 5863 5862 5860 5859 5859 5859 5859 5860 5861 5862 5863 5863 5864 5865 5866 5866 5867 5868 5869 5870 5871 5872 5873 5874 5875 5876 5878 5879 5880
5886 5885 5883 5881 5879 5877 5874 5872 5869 5867 5864 5862 5859 5857 5854 5852 5851 5850 5850 5851 5851 5852 5853 5855 5856 5857 5857 5859 5860 5861 5862 5862 5864 5865 5866 5867 5868 5869 5870 5871 5873 5874 5875
5881 5879 5877 5874 5872 5870 5867 5865 5862 5859 5856 5853 5850 5848 5845 5843 5842 5842 5842 5843 5843 5844 5845 5847 5848 5849 5851 5852 5853 5855 5856 5857 5858 5860 5861 5862 5863 5864 5865 5866 5868 5869 5870
5874 5872 5870 5867 5865 5862 5859 5856 5853 5850 5848 5845 5841 5838 5836 5835 5834 5833 5832 5833 5834 5835 5837 5840 5841 5843 5844 5846 5847 5848 5850 5851 5853 5854 5856 5857 5858 5859 5861 5862 5863 5864 5865
5867 5865 5862 5859 5857 5854 5851 5848 5845 5842 5839 5835 5832 5829 5827 5825 5824 5823 5823 5824 5824 5827 5830 5832 5834 5835 5837 5838 5840 5842 5843 5845 5847 5849 5850 5852 5853 5855 5856 5858 5859 5860 5861
5860 5858 5855 5852 5849 5846 5843 5839 5836 5833 5830 5826 5823 5820 5818 5815 5814 5813 5814 5816 5817 5819 5822 5824 5826 5828 5829 5831 5833 5835 5837 5839 5841 5843 5845 5847 5848 5850 5852 5853 5855 5856 5857
5852 5849 5846 5843 5839 5836 5833 5830 5826 5823 5820 5817 5815 5811 5809 5807 5806 5806 5806 5809 5810 5812 5815 5816 5818 5820 5822 5824 5826 5828 5830 5832 5835 5837 5839 5841 5843 5845 5847 5848 5850 5851 5853
5843 5840 5837 5833 5830 5826 5823 5820 5817 5814 5810 5808 5806 5804 5801 5800 5799 5799 5800 5801 5803 5805 5807 5808 5810 5812 5814 5817 5819 5821 5824 5827 5828 5831 5833 5835 5838 5840 5842 5844 5845 5847 5849
5835 5832 5828 5824 5821 5817 5814 5811 5807 5804 5801 5798 5797 5795 5794 5793 5792 5792 5793 5794 5796 5797 5799 5800 5802 5805 5807 5809 5811 5814 5817 5819 5822 5825 5827 5829 5832 5834 5837 5839 5841 5842 5844
5828 5824 5820 5816 5812 5808 5805 5801 5798 5795 5792 5790 5787 5786 5785 5785 5784 5785 5786 5787 5788 5789 5790 5792 5794 5796 5798 5801 5803 5806 5809 5812 5815 5818 5821 5823 5826 5828 5831 5833 5835 5838 5839
5820 5816 5811 5807 5803 5799 5795 5791 5788 5785 5782 5780 5777 5776 5776 5775 5775 5776 5776 5777 5778 5780 5781 5783 5785 5786 5789 5792 5794 5797 5800 5803 5807 5810 5813 5816 5819 5822 5825 5827 5829 5832 5834
5812 5807 5802 5798 5794 5789 5785 5781 5777 5774 5771 5768 5766 5765 5764 5764 5764 5764 5765 5766 5767 5768 5770 5772 5774 5776 5779 5781 5785 5788 5791 5795 5798 5801 5805 5808 5811 5814 5817 5820 5823 5826 5828